Weather History for Philip, SD

Change the Weather History Date:

Wednesday, April 2, 2014

  Actual Average Record
Temperature  
Mean Temperature 27 °F 41 °F  
Max Temperature 30 °F 55 °F 80 °F (1991)
Min Temperature 23 °F 28 °F 9 °F (1975)
Degree Days  
Heating Degree Days 38 24  
Month to date heating degree days 86 48  
Since 1 July heating degree days 6679 6351  
Cooling Degree Days 0 0  
Month to date cooling degree days 0 0  
Year to date cooling degree days 0 0  
Moisture  
Dew Point 23 °F    
Average Humidity 83    
Maximum Humidity 92    
Minimum Humidity 74    
Precipitation  
Precipitation 0.21 in 0.03 in 0.70 in (1984)
Month to date precipitation 0.21 0.06  
Year to date precipitation 1.23 2.11  
Sea Level Pressure  
Sea Level Pressure 29.98 in    
Wind  
Wind Speed 11 mph (East)    
Max Wind Speed 18 mph    
Max Gust Speed 23 mph    
Visibility 6 miles    
Events Fog , Snow    
T = Trace of Precipitation, MM = Missing Value Source: NWS Daily Summary

Daily Weather History Graph

Daily Weather History Graph

Search for Another Location

Airport:

Trip Planner

Search our weather history database for the weather conditions in past years. The results will help you decide how hot, cold, wet, or windy it might be!

Date:

Astronomy

Apr. 02, 2014 Rise Set
Actual Time 6:25 AM MDT 7:14 PM MDT
Civil Twilight 5:56 AM MDT 7:44 PM MDT
Nautical Twilight 5:21 AM MDT 8:18 PM MDT
Astronomical Twilight 4:45 AM MDT 8:55 PM MDT
Moon 8:05 AM MDT (4/2) 10:46 PM MDT (4/2)
Length of Visible Light 13h 47m
Length of Day
12h 48m
Waxing Crescent, 10% of the Moon is Illuminated
Apr 2
Waxing Crescent
Apr 7
First Quarter
Apr 15
Full
Apr 22
Last Quarter
Apr 29
New

Hourly Weather History & Observations

Time (MDT) Temp. Windchill Dew Point Humidity Pressure Visibility Wind Dir Wind Speed Gust Speed Precip Events Conditions
12:55 AM 24.1 °F 13.1 °F 18.0 °F 77% 30.11 in 10.0 mi East 11.5 mph - N/A   Overcast
1:55 AM 24.1 °F 12.0 °F 18.0 °F 77% 30.09 in 10.0 mi East 13.8 mph - N/A   Overcast
2:55 AM 24.1 °F 12.5 °F 18.0 °F 77% 30.06 in 10.0 mi East 12.7 mph - N/A   Overcast
3:55 AM 24.1 °F 13.7 °F 18.0 °F 77% 30.06 in 10.0 mi East 10.4 mph - N/A   Overcast
4:55 AM 24.1 °F 13.7 °F 18.0 °F 77% 30.05 in 10.0 mi East 10.4 mph - N/A   Overcast
6:55 AM 25.0 °F 14.2 °F 19.9 °F 81% 30.05 in 10.0 mi East 11.5 mph - N/A   Overcast
7:55 AM 26.1 °F 15.6 °F 19.9 °F 78% 30.05 in 10.0 mi East 11.5 mph - N/A   Overcast
8:43 AM 26.6 °F 15.7 °F 19.4 °F 74% 29.98 in 1.8 mi ESE 12.7 mph - 0.00 in Snow Light Snow
8:52 AM 24.8 °F 14.0 °F 21.2 °F 86% 29.98 in 0.5 mi ESE 11.5 mph - 0.00 in Fog , Snow Snow
8:55 AM 25.0 °F 14.2 °F 21.0 °F 85% 30.05 in 0.2 mi ESE 11.5 mph - 0.00 in Fog , Snow Snow
9:03 AM 24.8 °F 14.6 °F 21.2 °F 86% 29.98 in 0.5 mi ESE 10.4 mph - 0.01 in Fog , Snow Snow
9:25 AM 24.8 °F 14.6 °F 21.2 °F 86% 29.98 in 0.8 mi ESE 10.4 mph - 0.03 in Snow Light Snow
9:53 AM 24.8 °F 15.3 °F 21.2 °F 86% 29.98 in 0.2 mi East 9.2 mph - 0.06 in Fog , Snow Heavy Snow
9:55 AM 25.0 °F 14.8 °F 21.9 °F 88% 30.06 in 0.2 mi East 10.4 mph - 0.06 in Fog , Snow Heavy Snow
10:52 AM 26.6 °F 16.2 °F 23.0 °F 86% 29.98 in 0.8 mi East 11.5 mph - 0.08 in Snow Light Snow
10:55 AM 26.1 °F 16.2 °F 23.0 °F 88% 30.05 in 0.8 mi East 10.4 mph - 0.08 in Snow Light Snow
11:19 AM 26.6 °F 15.2 °F 23.0 °F 86% 29.98 in 0.2 mi ESE 13.8 mph - 0.02 in Fog , Snow Snow
11:55 AM 26.1 °F 13.6 °F 23.0 °F 88% 30.03 in 0.5 mi East 16.1 mph - 0.05 in Fog , Snow Snow
12:04 PM 26.6 °F 14.3 °F 23.0 °F 86% 29.95 in 0.8 mi East 16.1 mph - 0.01 in Snow Light Snow
12:16 PM 26.6 °F 13.8 °F 21.2 °F 80% 29.94 in 1.2 mi East 17.3 mph - 0.01 in Snow Light Snow
12:32 PM 26.6 °F 14.3 °F 23.0 °F 86% 29.93 in 2.0 mi East 16.1 mph - 0.01 in Snow Light Snow
12:41 PM 26.6 °F 14.3 °F 23.0 °F 86% 29.93 in 7.0 mi East 16.1 mph - 0.01 in Snow Light Snow
12:55 PM 28.0 °F 15.7 °F 23.0 °F 81% 29.99 in 10.0 mi East 17.3 mph - 0.01 in   Overcast
1:37 PM 28.4 °F 16.2 °F 24.8 °F 86% 29.92 in 10.0 mi East 17.3 mph - 0.01 in   Overcast
1:55 PM 28.9 °F 17.3 °F 24.1 °F 82% 29.97 in 1.5 mi East 16.1 mph - 0.01 in Snow Light Snow
2:11 PM 28.4 °F 17.0 °F 24.8 °F 86% 29.90 in 3.0 mi East 15.0 mph - 0.00 in Snow Light Snow
2:55 PM 28.9 °F 17.7 °F 24.1 °F 82% 29.96 in 9.0 mi East 15.0 mph - 0.00 in Snow Light Snow
3:04 PM 28.4 °F 17.5 °F 24.8 °F 86% 29.90 in 8.0 mi East 13.8 mph - 0.00 in Snow Light Snow
3:14 PM 28.4 °F 17.5 °F 24.8 °F 86% 29.90 in 9.0 mi East 13.8 mph - 0.00 in   Overcast
3:43 PM 28.4 °F 16.6 °F 24.8 °F 86% 29.88 in 10.0 mi East 16.1 mph - 0.00 in   Overcast
3:55 PM 28.9 °F 17.3 °F 24.1 °F 82% 29.96 in 10.0 mi East 16.1 mph - 0.00 in   Overcast
4:12 PM 28.4 °F 16.6 °F 24.8 °F 86% 29.89 in 10.0 mi East 16.1 mph - N/A   Overcast
4:55 PM 28.9 °F 18.2 °F 24.1 °F 82% 29.96 in 10.0 mi East 13.8 mph - N/A   Overcast
5:12 PM 28.4 °F 18.0 °F 24.8 °F 86% 29.90 in 10.0 mi East 12.7 mph - N/A   Overcast
5:37 PM 28.4 °F 16.6 °F 24.8 °F 86% 29.88 in 10.0 mi East 16.1 mph - N/A   Overcast
5:55 PM 28.9 °F 18.6 °F 24.1 °F 82% 29.96 in 10.0 mi East 12.7 mph - N/A   Overcast
6:55 PM 28.9 °F 19.2 °F 24.1 °F 82% 29.97 in 10.0 mi East 11.5 mph - N/A   Overcast
7:55 PM 28.9 °F 19.8 °F 25.0 °F 85% 29.96 in 10.0 mi East 10.4 mph - N/A   Overcast
8:55 PM 30.0 °F 21.7 °F 24.1 °F 79% 29.98 in 10.0 mi East 9.2 mph - N/A   Overcast
9:55 PM 28.9 °F 20.4 °F 25.0 °F 85% 30.00 in 10.0 mi East 9.2 mph - N/A   Overcast
10:55 PM 28.0 °F 20.8 °F 24.1 °F 85% 29.99 in 10.0 mi East 6.9 mph - N/A   Overcast
11:55 PM 27.0 °F 21.6 °F 24.1 °F 89% 29.99 in 10.0 mi ENE 4.6 mph - N/A   Overcast